This demonstration page uses our WeatherBlox Daily Observations layout. Learn more.

Left ArrowRight Arrow

Hourly Observations for August 29, 2021

Temp ( °F °C ) Dew Point ( °F °C ) Humidity (%) Winds ( mph kmh ) Pressure ( in mb ) Visibility ( mi km ) Precip ( " mm )
12:54 am 00:54 Cloudy with Light Rain 71 21.7 62 16.7 73 73 NNE 5 7 29.98 1015 10 16 0.00 0.00
1:54 am 01:54 Cloudy 73 22.8 60 15.6 64 64 NNE 18 30 30.00 1016 10 16 0.00 0.00
2:04 am 02:04 Cloudy with Nearby Thunderstorms 72 22.2 61 16.1 68 68 N 17 28 30.02 1017 10 16 0.00 0.00
2:29 am 02:29 Cloudy with Strong Thunderstorms 66 18.9 63 17.2 90 90 N 9 15 30.03 1017 3 4 0.06 1.52
2:44 am 02:44 Cloudy with Strong Thunderstorms 66 18.9 63 17.2 90 90 NNW 10 17 30.05 1018 4 6 0.21 5.33
2:51 am 02:51 Cloudy with Strong Thunderstorms 66 19 64 18 94 94 NNW 10 17 30.07 1018 2 3 0.27 6.86
2:54 am 02:54 Cloudy with Strong Thunderstorms 67 19.4 64 17.8 91 91 N 10 17 30.04 1017 2 2 0.35 8.89
3:08 am 03:08 Cloudy with Thunderstorms 65 18.3 63 17.2 93 93 N 6 9 30.06 1018 3 5 0.22 5.59
3:19 am 03:19 Cloudy with Nearby Thunderstorms 65 18.3 63 17.2 93 93 N 7 11 30.05 1018 3 4 0.25 6.35
3:41 am 03:41 Cloudy with Rain 65 18.3 63 17.2 93 93 NE 6 9 30.07 1018 3 5 0.41 10.41
3:54 am 03:54 Cloudy with Heavy Rain 65 18.3 63 17.2 93 93 NE 5 7 30.06 1018 2 3 0.51 12.95
4:07 am 04:07 Cloudy with Nearby Thunderstorms 65 18.3 63 17.2 93 93 SSE 3 6 30.07 1018 2 3 0.12 3.05
4:09 am 04:09 Cloudy with Thunderstorms 65 18.3 63 17.2 93 93 SSE 5 7 30.07 1018 2 3 0.13 3.30
4:22 am 04:22 Cloudy with Strong Thunderstorms 66 18.9 63 17.2 90 90 SSE 13 20 30.05 1018 4 6 0.21 5.33
4:34 am 04:34 Cloudy with Nearby Thunderstorms 66 18.9 64 17.8 93 93 SSE 17 28 30.03 1017 5 8 0.23 5.84
4:44 am 04:44 Cloudy with Light Rain 66 18.9 64 17.8 93 93 SSE 15 24 30.04 1017 7 11 0.24 6.10
4:54 am 04:54 Mostly Cloudy with Light Rain 66 18.9 64 17.8 93 93 SSE 13 20 30.04 1017 9 14 0.24 6.10
5:19 am 05:19 Partly Cloudy with Nearby Thunderstorms 67 19.4 64 17.8 91 91 SE 17 28 29.97 1015 10 16 0.02 0.51
5:30 am 05:30 Mostly Clear 67 19.4 64 17.8 91 91 S 13 20 30.00 1016 10 16 0.02 0.51
5:54 am 05:54 Clear 67 19.4 64 17.8 91 91 W 7 11 30.04 1017 10 16 0.02 0.51
6:54 am 06:54 Mostly Sunny 67 19.4 64 17.8 91 91 SSW 6 9 30.05 1018 10 16 0.00 0.00
7:54 am 07:54 Mostly Sunny 67 19.4 63 17.2 87 87 NW 10 17 30.05 1018 10 16 0.00 0.00
8:54 am 08:54 Sunny 67 19.4 64 17.8 91 91 NW 7 11 30.06 1018 10 16 0.00 0.00
9:54 am 09:54 Sunny 68 20 64 17.8 87 87 NW 8 13 30.06 1018 10 16 0.00 0.00
10:54 am 10:54 Sunny 70 21.1 65 18.3 84 84 NW 10 17 30.07 1018 10 16 0.00 0.00
11:54 am 11:54 Partly Cloudy 73 22.8 66 18.9 79 79 N 16 26 30.06 1018 10 16 0.00 0.00
12:09 pm 12:09 Mostly Cloudy 74 23.3 66 18.9 76 76 NNW 16 26 30.03 1017 10 16 0.00 0.00
12:17 pm 12:17 Partly Cloudy 74 23.3 66 18.9 76 76 N 15 24 30.03 1017 10 16 0.00 0.00
12:54 pm 12:54 Mostly Cloudy 76 24.4 66 18.9 72 72 NNE 13 20 30.05 1018 10 16 0.00 0.00
1:50 pm 13:50 Mostly Cloudy 75 24 66 19 74 74 NNE 8 13 30.04 1017 10 16 0.00 0.00
1:54 pm 13:54 Mostly Cloudy 76 24.4 66 18.9 72 72 ENE 8 13 30.06 1018 10 16 0.00 0.00
2:54 pm 14:54 Mostly Cloudy 78 25.6 65 18.3 64 64 NE 8 13 30.06 1018 10 16 0.00 0.00
3:54 pm 15:54 Sunny 78 25.6 63 17.2 60 60 NE 7 11 30.05 1018 10 16 0.00 0.00
4:54 pm 16:54 Sunny 79 26.1 62 16.7 56 56 NE 9 15 30.03 1017 10 16 0.00 0.00
5:54 pm 17:54 Sunny 79 26.1 63 17.2 58 58 NE 10 17 30.03 1017 10 16 0.00 0.00
6:54 pm 18:54 Sunny 78 25.6 63 17.2 60 60 NNE 7 11 30.02 1017 10 16 0.00 0.00
7:54 pm 19:54 Sunny 72 22.2 62 16.7 71 71 NNE 7 11 30.02 1017 10 16 0.00 0.00
8:54 pm 20:54 Clear 69 20.6 61 16.1 76 76 NNE 5 7 30.04 1017 10 16 0.00 0.00
9:54 pm 21:54 Clear 67 19.4 63 17.2 87 87 N 3 6 30.05 1018 10 16 0.00 0.00
10:54 pm 22:54 Clear 69 20.6 63 17.2 81 81 Calm 30.04 1017 10 16 0.00 0.00
11:54 pm 23:54 Clear 69 20.6 62 16.7 78 78 ESE 3 6 30.04 1017 10 16 0.00 0.00

Powered by AerisWeather